Location: Grantsboro
(35.1404°N, 76.8424°W)
Time: 17:23:08
(UTC+00:00)

COSMO-SKYMED 1 - Pass Details

Date: 18 January 2020
Orbit: 621 x 623 km, 97.9° (Epoch: 19 February)

Event Time Altitude Azimuth Distance (km) Brightness Sun altitude
Rises 11:01:08 0° 188° (S) 2,887 6.1 -14.9°
Reaches altitude 10° 11:03:29 10° 198° (SSW) 1,985 5.1 -14.5°
Maximum altitude 11:07:22 32° 262° (W) 1,066 3.3 -13.7°
Enters shadow 11:10:34 14° 322° (NW) 1,749 4.4 -13.1°
